Regional Weather Roundup
Issued by NWS

Home | Current Version | Previous Version | Graphics & Text | Print | Product List | Glossary On
Versions: 1 2 3 4 5 6 7 8 9 10 11 12 13 14 15 16 17 18 19 20 21 22 23 24 25 26 27 28 29 30 31 32 33 34 35 36 37 38 39 40 41 42 43 44 45 46 47 48 49 50
713
ASUS43 KIND 102309
RWRIN

WEATHER ROUNDUP FOR INDIANA
NATIONAL WEATHER SERVICE INDIANAPOLIS IN
600 PM EST SUN DEC 10 2017

NOTE: "FAIR" INDICATES FEW OR NO CLOUDS BELOW 12,000 FEET WITH NO
SIGNIFICANT WEATHER AND/OR OBSTRUCTIONS TO VISIBILITY.

* - STATION DOES NOT REPORT WEATHER SUCH AS PRECIPITATION OR FOG.

+ - STATION NOT QUALITY CONTROLLED BY THE NATIONAL WEATHER SERVICE.
    USE DATA WITH CAUTION...ESPECIALLY DEWPOINT AND RELATIVE
    HUMIDITY OBSERVATIONS.

INZ001>003-010>013-019-020-110000-
NORTHWEST INDIANA

CITY           SKY/WX    TMP DP  RH WIND       PRES   REMARKS
GARY /AIRPORT/ CLOUDY    34  21  60 W12       30.00R WCI  25
KNOX *+        CLOUDY    32  25  74 NW7       29.96R WCI  26
LA PORTE +     CLOUDY    31  24  72 NW3       29.96R
MICHIGAN CITY+ CLOUDY    32  25  74 NW10G17   29.98R WCI  24
MONTICELLO +   CLEAR     32  20  61 W7        29.96R WCI  26
RENSSELAER +   CLOUDY    34  19  55 W6        29.98R WCI  29
VALPARAISO     CLOUDY    33  23  66 NW8       29.98R WCI  26

$$

LMZ046-743>745-110000-
SOUTHERN LAKE MICHIGAN

STATION/POSITION TIME  TEMP    WIND        PRES    WAVE
                       AIR SEA DIR/SP/G            HT
                 (UTC) (F)     (DEG/KT/KT) (MB)    (FT)
BURNS HARBOR     2240   33     320/ 13/ 17 1015.2R
MICHIGAN CITY    2240   32     300/ 15/ 17   N/A

$$

INZ004-005-014>016-021>024-110000-
NORTH CENTRAL INDIANA

CITY           SKY/WX    TMP DP  RH WIND       PRES   REMARKS
ELKHART        CLOUDY    30  23  74 W7        29.94R WCI  23
GOSHEN         CLOUDY    30  22  72 NW6       29.94R WCI  24
LOGANSPORT +   PTCLDY    34  23  64 W9G16     29.96R WCI  26
PERU/GRISSOM   CLOUDY    34  25  69 W8        29.94R WCI  27
ROCHESTER +    CLOUDY    36  27  69 NW9       29.96R WCI  29
SOUTH BEND     CLOUDY    30  25  81 W7        29.95R WCI  23
WARSAW +       CLOUDY    32  25  74 NW8       29.94R WCI  25

$$

INZ006>009-017-018-025>027-110000-
NORTHEAST INDIANA

CITY           SKY/WX    TMP DP  RH WIND       PRES   REMARKS
AUBURN +       CLOUDY    32  23  69 CALM      29.93S
FORT WAYNE     CLOUDY    32  25  75 S5        29.94R WCI  27
HUNTINGTON +   CLOUDY    33  21  61 SW3       29.93S
KENDALLVILLE + CLOUDY    29  22  73 CALM      29.93R

$$

INZ028-029-035-036-043>045-051>053-110000-
WEST CENTRAL INDIANA

CITY           SKY/WX    TMP DP  RH WIND       PRES   REMARKS
CRAWFORDSVL +  CLEAR     32  22  65 W7        29.98R WCI  26
GREENCASTLE +  CLEAR     34  23  64 W3        29.99R
LAFAYETTE      CLEAR     34  22  61 W12       29.98R WCI  25
TERRE HAUTE    CLEAR     37  22  54 W7        30.01R WCI  32

$$

INZ030>032-037>040-046>048-054>057-064-065-110000-
CENTRAL INDIANA

CITY           SKY/WX    TMP DP  RH WIND       PRES   REMARKS
COLUMBUS       CLEAR     36  18  48 SW9       30.00R WCI  29
FRANKFORT +    CLEAR     33  24  68 W9        29.98R WCI  25
INDIANAPOLIS   PTCLDY    32  22  66 SW9       29.99R WCI  24
-EAGLE CREEK   CLEAR     36  21  54 W3        29.98R
KOKOMO +       CLOUDY    34  24  67 W9        29.96R WCI  27
MARION +       CLOUDY    33  24  68 SW8       29.96R WCI  26
MT COMFORT *+  CLEAR     32  25  74 W8        29.99R WCI  25
SHELBYVILLE    CLEAR     31  19  61 SW6       29.99R WCI  25
ZIONSVILLE +   CLEAR     32  21  64 SW9       29.97R WCI  24

$$

INZ033-034-041-042-049-050-058-059-110000-
EAST CENTRAL INDIANA

CITY           SKY/WX    TMP DP  RH WIND       PRES   REMARKS
MUNCIE         CLOUDY    35  21  56 SW8       29.96R WCI  29
RICHMOND +     CLEAR     30  19  64 SW9       29.98R WCI  22

$$

INZ060-061-067>069-081>083-085>088-110000-
SOUTHWEST INDIANA

CITY           SKY/WX    TMP DP  RH WIND       PRES   REMARKS
EVANSVILLE     CLEAR     37  25  61 SW7       30.05R WCI  32
HUNTINGBURG +  PTCLDY    37  24  59 SW7       30.04R WCI  32
WASHINGTON +   CLEAR     37  23  57 SW6       30.03R WCI  32

$$

INZ062-063-066-070>080-084-089>092-110000-
SOUTH CENTRAL AND SOUTHEAST INDIANA

CITY           SKY/WX    TMP DP  RH WIND       PRES   REMARKS
BEDFORD +      CLEAR     36  21  55 SW6       30.01R WCI  31
BLOOMINGTON    CLEAR     37  22  54 W8        30.00R WCI  31
MADISON *+     CLEAR     36  19  51 SW8       30.03R WCI  29
NORTH VERNON + CLEAR     32  19  59 SW6       30.01R WCI  26
SEYMOUR +      CLEAR     36  21  55 SW8       30.02R WCI  29

$$





USA.gov is the U.S. government's official web portal to all federal, state and local government web resources and services.